Tracking 33176 objects as of 12-Feb-2026
HD Live streaming from Space Station
objects crossing your sky now

FLOCK 4G 30

Track FLOCK 4G 30 now!
10-day predictions
FLOCK 4G 30 is classified as:


NORAD ID: 62679
Int'l Code: 2025-009BY
Perigee: 489.3 km
Apogee: 497.3 km
Inclination: 97.4 °
Period: 94.3 minutes
Semi major axis: 6864 km
RCS: Unknown
Launch date: January 14, 2025
Source: United States (US)
Launch site: AIR FORCE WESTERN TEST RANGE (AFWTR)
Your satellite tracking list
Your tracking list is empty




NASA's NSSDC Master Catalog

Two Line Element Set (TLE):
1 62679U 25009BY  26042.82227970  .00013836  00000-0  53146-3 0  9990
2 62679  97.4019 124.9406 0005817  70.3113 289.8753 15.26541870117396
Source of the keplerian elements: AFSPC